Temp_Advection
nan nan nan nan nan nan nan nan nan nan nan nan nan nan nan nan nan nan nan nan nan nan nan nan nan nan nan nan nan nan nan nan nan nan nan nan nan nan nan nan nan nan nan nan nan
nan -0 -0 -0 -0 -0 -0 -0 -0 -0 -0 -0 -0 -0 -0 -0 -1 -0 0 0 0 -0 -0 -0 -0 -0 -1 -0 -1 -1 -1 -2 -0 1 1 0 -0 -1 -0 -0 0 1 0 0 nan
nan -0 -0 -0 -0 -0 -0 -0 -0 -0 -0 -0 -0 -0 -0 -0 -0 -0 0 -0 -0 -0 -0 -0 -0 -0 -1 -1 -1 -1 -2 -1 1 0 0 -0 -0 -1 -1 -0 -0 0 0 0 nan
nan -0 -0 -0 -0 -0 -0 -0 -0 -0 -0 -0 -0 -0 -0 0 -0 0 -0 -0 -0 -0 -0 -0 -0 -0 -0 -0 0 -0 -1 -0 -0 -0 0 0 -0 -0 -1 -1 -0 0 0 0 nan
nan -0 -0 -0 -0 -0 -0 -0 -0 -0 -0 -0 -0 -0 -0 -0 -1 -0 -0 -0 -0 -0 -0 -0 -0 -1 -0 -0 -0 -1 -1 -0 -0 1 0 -0 -1 -0 -0 -0 -0 0 0 0 nan
nan -0 -0 -0 0 0 0 0 0 -0 -0 -0 -0 -0 -0 -0 -0 -0 -0 -0 -0 -0 -0 -0 -0 -0 -1 -1 -1 -1 -0 -1 -1 -0 -1 -1 -0 -1 -1 -0 -0 -0 -0 -0 nan
nan 0 0 0 0 0 0 0 0 0 -0 -0 -0 -0 -0 -0 0 -0 -0 -0 -0 -0 -0 -0 -0 -0 -0 -0 0 -0 -2 -1 -1 -1 -0 -0 -1 -1 -1 -0 -0 -1 -1 -1 nan
nan 0 0 -0 0 0 0 0 0 -0 -0 -0 -0 -0 -0 -0 -0 -0 -0 -0 -0 -0 -0 -0 -0 -0 -1 -1 -1 -1 -0 -2 -2 -0 1 0 -2 -2 0 -0 -0 -0 -0 -0 nan
nan 0 0 -0 0 0 0 0 -0 -0 -0 -0 -0 0 0 -0 -0 0 0 0 -0 -0 -0 -0 -0 -1 -1 -1 -1 -0 -1 -2 -2 -0 0 1 -1 -1 -0 -1 -0 -0 -0 -0 nan
nan -0 -0 -0 -0 -0 0 -0 -0 -0 -0 -0 -0 0 -0 -0 0 0 0 -0 0 0 0 -0 -0 -1 -0 -0 -0 -1 -1 -0 -1 -0 0 -0 -2 -1 0 -0 -1 -1 -1 -1 nan
nan -0 -0 -0 -0 -0 -0 -0 -0 -0 -1 -0 0 0 -0 -0 0 0 -0 0 0 -0 0 -0 -0 -0 -0 -0 -0 -0 -0 -1 -2 -0 0 -0 -1 -2 -1 -0 -1 -1 -1 -0 nan
nan -0 -0 -0 -0 -0 -1 -1 -0 0 0 0 0 0 0 -0 0 0 -0 0 0 0 -0 0 -0 -0 -0 -0 -0 -0 -0 -1 -2 -0 0 -0 -1 -1 -0 -0 -0 -0 -1 -1 nan
nan -0 0 -0 -0 -0 -1 -1 0 0 0 0 0 0 0 0 -0 -0 0 -0 -0 -0 -0 -0 -0 -0 -0 -0 -0 -0 -0 -1 -1 -1 -0 -0 -1 -2 -1 -0 -0 0 -0 -2 nan
nan -0 -0 -0 -0 -0 -0 0 0 1 0 0 0 -0 0 0 0 0 -0 -0 -0 -0 -0 -0 -0 0 -0 -0 0 -1 -1 0 -0 -0 -1 -0 -1 -2 -1 -1 0 1 -1 -1 nan
nan -0 -0 -0 -0 -0 0 -0 -0 0 0 -0 -0 0 0 0 -0 -0 0 -0 -0 -0 0 -0 -0 -0 0 0 0 -0 -1 0 -0 -1 -1 -0 -0 -2 -1 -0 -1 -1 0 -0 nan
nan 0 -0 -0 -0 0 0 0 0 -0 0 0 -0 0 -0 -0 0 -0 0 0 -0 -1 -0 0 -1 -0 -0 -0 0 0 -0 -0 -0 0 -0 -2 -1 -1 -1 -1 -1 -0 -0 -0 nan
nan -0 -0 -0 -0 0 -0 0 -0 -0 0 0 -0 -0 -0 -0 -0 -0 -0 -0 -0 -0 -1 -1 -0 0 -0 -1 -0 0 0 -0 0 -0 -1 -1 -0 -1 -1 -1 -1 0 1 1 nan
nan -0 -0 -0 0 -0 0 -0 -0 0 0 -0 -0 -0 -0 -0 -0 -0 -0 -0 -0 0 -1 -1 -0 -0 0 0 -0 -0 0 0 -1 -1 -2 -1 -0 -1 -0 0 1 0 -0 -0 nan
nan -0 -0 0 0 0 -0 -0 -0 0 -0 -0 -0 -0 0 0 -0 -0 -0 0 -0 -0 -0 -0 -1 -1 -0 0 0 0 0 0 -0 -1 -1 -1 -1 0 -3 -4 -4 -5 -5 -3 nan
nan -0 0 0 -0 0 0 0 0 -0 -0 -0 -0 -0 -0 -0 -0 -0 0 0 0 -0 0 0 -1 -1 -0 -1 0 0 -0 -0 -0 -0 -1 -2 -1 -1 -2 -2 -2 -3 -6 -6 nan
nan -0 -0 0 0 -0 0 0 0 0 -0 -0 -0 -0 0 -0 -0 -0 -0 0 -0 -0 -0 0 -0 -1 -1 0 -0 0 -0 -0 -0 -0 -0 -1 -0 -0 1 1 -0 -1 -2 -7 nan
nan 0 0 0 -0 -0 0 -0 -0 -0 -0 -0 -0 -0 -0 -0 -0 -0 -0 -0 0 0 -0 -0 0 -1 -2 -0 0 -0 -0 -0 -0 -0 -1 -1 -1 0 1 1 1 -0 -1 -4 nan
nan -0 0 0 0 -0 0 0 -0 -0 -0 0 -0 -0 0 0 -0 -0 -0 0 0 0 -0 -0 0 -1 -1 1 0 -0 -0 -0 -0 -1 -0 -1 -2 -1 0 0 2 2 -0 -2 nan
nan 0 -0 0 0 -0 -0 0 -0 0 -0 -0 -0 -0 0 -0 0 -0 -1 0 0 0 0 0 0 -0 -0 -1 0 0 -0 0 0 -0 -1 -1 -2 -2 -1 -1 1 2 1 -1 nan
nan 0 0 -0 0 -0 0 0 0 -0 0 -0 -0 0 0 0 -1 -1 -1 -0 0 0 0 0 0 -0 -0 -1 -0 0 0 -0 -0 0 -1 -2 -1 -1 -2 -1 -0 1 1 -0 nan
nan 0 0 0 -0 0 0 -0 -0 -0 -0 -0 0 -0 0 1 0 -0 -1 -1 -1 -0 0 0 0 -0 -1 -1 -0 -1 -1 -0 -1 -0 -1 -0 0 -1 -2 -1 -1 -0 0 0 nan
nan nan nan nan nan nan nan nan nan nan nan nan nan nan nan nan nan nan nan nan nan nan nan nan nan nan nan nan nan nan nan nan nan nan nan nan nan nan nan nan nan nan nan nan nan
Wind_Speed
7 6 6 7 7 7 7 8 9 9 9 10 10 10 12 13 10 5 5 3 5 8 9 9 5 5 8 11 13 11 10 17 22 20 16 6 5 2 7 13 12 7 4 6 1
9 8 9 9 9 9 9 10 11 12 13 13 13 12 12 12 8 7 7 4 5 9 11 8 5 5 11 12 12 16 15 27 18 14 19 18 16 20 11 13 13 13 4 2 3
10 10 10 10 10 11 11 11 11 12 13 14 15 15 14 10 5 3 5 2 7 13 11 7 7 5 13 15 20 17 27 21 19 11 21 23 24 23 24 20 18 16 9 5 4
11 11 11 11 12 12 12 12 12 12 13 14 14 13 12 8 2 2 4 9 12 11 9 5 3 5 7 13 18 23 33 27 24 24 21 20 19 18 22 27 24 14 9 13 13
11 11 11 12 12 12 12 11 12 13 14 14 13 11 10 5 5 6 6 8 8 7 7 6 5 7 10 8 12 22 26 28 25 24 27 25 30 30 38 35 30 28 26 21 15
11 11 12 12 12 12 11 11 12 13 12 12 11 11 8 7 7 9 9 6 4 6 6 6 4 6 11 13 14 14 22 24 24 25 27 27 29 27 54 33 32 32 33 31 29
11 11 12 13 13 12 11 12 12 11 10 11 11 10 13 7 10 10 11 6 1 4 4 5 6 6 7 10 14 20 23 22 26 29 24 16 23 30 65 27 29 30 29 27 26
11 13 13 14 14 12 11 12 11 8 9 11 12 13 7 5 8 10 5 6 7 7 7 6 5 8 12 13 20 21 21 21 16 11 18 24 33 31 44 31 33 34 33 35 33
13 14 14 15 15 13 12 11 8 8 11 11 12 8 5 9 9 11 13 6 8 8 8 10 7 9 10 13 15 15 19 25 25 18 16 19 30 25 31 35 33 28 28 28 32
14 14 14 14 15 13 12 6 7 15 10 9 12 5 10 8 8 10 12 9 4 6 2 3 6 8 8 10 15 18 20 23 25 17 16 22 28 22 29 29 29 29 33 38 32
13 14 14 13 14 15 13 4 3 3 16 7 5 5 6 11 8 6 13 6 6 3 4 2 8 9 12 13 16 18 20 25 25 22 22 27 29 26 28 27 26 27 31 31 24
14 14 14 12 12 14 13 10 10 4 5 9 8 9 10 11 4 6 9 7 5 6 4 6 11 11 10 11 13 16 19 23 24 20 18 25 30 25 26 32 30 28 30 32 34
13 13 13 9 8 11 16 15 10 7 2 2 2 5 7 6 4 9 7 7 7 6 8 9 11 9 9 11 13 17 19 21 23 22 22 24 33 29 29 35 38 40 40 36 33
12 13 13 8 5 8 8 10 7 5 2 4 2 3 8 7 2 4 6 6 6 9 9 9 2 8 12 13 12 18 17 15 17 17 16 13 22 21 19 22 26 38 41 43 41
12 13 11 9 4 5 4 7 4 4 2 3 3 3 10 7 9 3 9 5 11 14 8 10 11 13 13 4 7 12 13 17 17 17 18 20 15 19 18 23 24 23 34 37 44
10 11 9 6 5 2 3 4 2 2 3 1 3 7 13 6 7 10 8 7 12 10 10 14 17 12 8 9 8 12 13 16 20 17 15 23 19 19 17 21 23 25 31 29 33
9 8 7 6 1 2 3 2 2 3 1 3 3 9 9 8 5 10 11 8 8 6 7 15 9 3 6 11 3 8 11 6 5 8 12 13 11 18 17 21 19 20 33 34 31
6 6 8 7 7 5 4 2 1 0 2 2 4 10 4 8 5 11 11 4 9 10 10 9 0 4 8 11 9 16 7 6 6 13 17 19 12 10 8 13 25 30 31 29 29
4 4 7 6 5 6 2 3 3 1 2 6 9 4 0 2 6 7 9 5 4 10 7 6 6 20 15 9 9 6 8 16 9 18 12 12 15 20 19 22 25 32 27 31 35
7 5 5 5 5 6 1 4 2 2 1 3 3 2 6 8 7 9 6 2 5 8 7 6 12 12 4 15 7 9 11 6 6 7 11 12 16 7 22 24 24 25 32 32 25
8 3 3 5 6 4 3 3 3 2 2 2 3 6 7 7 7 10 4 3 5 8 11 9 5 11 17 4 15 11 4 4 5 6 5 9 8 4 12 22 23 21 33 40 27
4 3 5 4 2 3 2 2 0 2 2 4 5 7 9 8 11 8 7 5 7 13 12 2 5 12 17 17 5 2 5 8 5 9 14 12 15 1 21 20 17 25 31 36 32
4 4 3 3 1 2 3 1 2 2 2 2 3 5 7 9 6 4 8 10 15 8 7 9 4 11 11 8 4 3 8 6 10 12 15 12 11 21 24 20 21 20 26 33 35
4 2 2 2 1 1 1 1 3 3 6 6 7 7 10 9 8 8 14 9 11 19 22 17 14 14 13 15 14 20 19 15 12 9 16 16 23 23 22 21 23 20 24 29 33
3 3 2 3 3 4 2 2 3 3 5 5 4 7 7 6 13 17 15 17 24 22 17 6 11 12 15 21 20 23 22 22 17 18 16 22 23 19 20 22 18 23 24 23 24
4 4 2 4 4 4 4 3 4 2 4 4 8 10 11 11 12 19 20 18 19 18 11 8 10 13 18 22 21 23 21 22 23 20 16 19 18 22 28 28 19 20 20 14 20
5 6 3 4 5 4 3 4 3 1 5 8 6 10 14 17 19 22 25 29 27 22 19 16 14 13 20 15 12 15 20 18 10 12 14 11 12 19 17 18 15 19 19 10 15
Wind_Direction
46 48 42 46 34 24 12 5 358 352 357 360 3 360 347 347 336 2 43 53 29 13 7 342 286 282 245 232 224 224 243 247 246 244 252 245 264 253 260 258 231 222 275 328 291
43 40 35 34 26 19 10 5 356 353 353 357 357 2 358 359 43 80 140 114 45 7 5 10 340 275 243 243 226 224 239 246 252 256 250 263 263 272 269 247 234 228 248 342 36
29 29 27 23 16 11 5 358 353 350 349 351 354 357 2 10 116 71 161 237 321 340 344 342 322 302 246 237 237 239 244 257 249 268 256 265 261 261 266 256 250 252 227 256 249
21 19 17 13 9 5 359 352 349 347 347 350 354 348 0 32 9 292 285 295 308 330 343 334 300 270 265 236 234 251 258 263 268 272 251 253 267 257 258 259 262 257 247 265 269
18 16 13 10 8 3 355 352 347 347 347 350 353 354 23 53 55 326 312 318 329 356 14 356 324 292 258 269 277 261 265 270 271 259 258 262 260 266 262 257 262 262 263 265 258
11 10 7 5 4 1 357 351 344 347 351 355 1 19 52 87 23 1 334 323 359 11 1 7 340 310 283 272 264 290 296 283 272 266 266 258 260 265 261 252 258 259 263 261 254
360 2 360 360 0 1 356 347 346 349 356 4 13 49 73 79 60 32 28 53 50 16 328 333 329 284 311 270 274 290 286 280 262 256 244 257 258 240 255 256 259 259 259 259 252
348 352 355 356 359 2 356 346 340 357 16 12 49 76 85 71 13 12 356 321 310 315 315 291 309 285 262 279 281 274 279 276 269 248 255 225 257 249 258 258 255 255 253 258 256
345 348 352 351 359 4 0 350 355 40 13 49 34 104 73 35 21 15 12 336 312 303 274 273 259 269 269 261 271 246 260 267 271 264 290 242 256 263 268 258 259 255 253 254 257
355 352 354 353 2 11 11 15 45 53 51 58 41 98 40 352 346 11 3 17 352 341 91 185 229 261 240 250 260 279 266 262 264 271 277 273 273 271 264 268 267 262 252 249 251
357 359 3 3 6 17 29 61 51 82 47 64 46 59 12 360 45 16 12 358 355 331 338 239 262 263 283 270 281 291 281 276 277 278 272 267 272 276 279 271 270 267 255 253 245
7 7 10 8 15 22 39 78 64 52 83 61 71 49 33 13 355 13 10 354 345 346 304 248 263 305 310 290 279 274 274 273 278 278 269 273 270 268 256 263 262 263 267 257 254
12 10 13 11 33 31 46 57 45 49 79 53 21 36 18 354 345 354 359 341 327 309 307 294 289 311 291 281 271 269 269 277 284 293 282 278 273 266 259 260 256 253 253 259 258
7 5 12 15 36 40 40 31 32 85 127 49 62 46 351 315 223 338 345 330 283 296 317 286 286 287 294 286 273 274 289 287 284 283 277 299 286 283 278 260 237 244 245 243 247
10 360 16 31 45 55 33 13 35 73 188 12 61 358 352 359 322 116 331 296 289 295 282 276 294 310 295 317 300 281 295 286 287 283 283 266 262 274 257 252 260 259 244 241 239
10 359 6 29 57 59 21 22 72 230 88 139 8 349 345 353 338 330 341 308 292 288 270 256 266 279 260 307 291 299 288 271 254 258 260 263 256 273 262 255 249 254 261 249 242
5 13 32 47 69 44 30 87 236 22 232 61 345 337 332 342 339 349 341 11 6 318 324 305 273 224 246 314 278 293 319 291 249 224 254 282 279 273 265 281 251 258 251 252 253
23 59 56 60 74 47 39 227 58 241 34 16 320 318 339 358 5 339 341 350 32 18 310 342 325 348 358 308 305 305 307 285 297 301 299 304 273 260 286 267 253 260 266 266 265
79 70 53 78 60 26 329 67 78 49 28 338 311 298 90 352 334 326 325 321 39 30 10 319 283 322 297 300 295 326 288 313 271 275 260 253 260 268 15 4 8 346 325 292 269
132 100 70 80 47 20 41 98 111 89 342 288 305 328 311 335 324 334 322 2 9 25 344 317 298 293 320 304 273 257 322 326 329 301 308 314 308 41 11 352 345 344 330 326 315
132 127 138 75 37 39 70 91 127 172 312 288 304 288 301 328 297 315 288 346 32 341 335 317 255 289 309 290 322 303 305 344 277 266 315 318 321 164 350 340 338 329 326 321 319
122 114 173 80 16 28 98 75 6 190 247 254 269 272 281 301 300 294 280 291 342 338 317 348 287 284 291 293 283 351 9 348 314 326 306 286 288 351 345 342 349 319 318 316 325
110 103 176 109 119 115 145 174 248 242 229 218 256 250 282 293 297 287 270 302 304 306 326 323 278 310 297 187 147 1 327 293 315 282 283 301 293 322 310 335 331 319 314 318 324
121 130 82 120 128 187 197 217 185 218 265 265 270 267 276 276 267 274 282 295 288 291 304 289 265 255 276 310 313 297 293 289 286 277 303 292 294 310 328 333 323 327 312 328 323
94 112 149 155 179 208 200 211 227 245 229 245 244 255 282 284 292 281 291 301 300 294 286 259 273 275 279 275 276 280 280 282 269 266 272 289 295 329 336 326 334 323 327 328 332
123 138 150 149 161 208 175 224 241 265 234 250 257 294 293 279 271 292 295 294 294 295 283 273 271 282 285 275 269 277 280 277 274 269 257 295 311 348 327 329 338 341 337 335 354
159 144 151 159 167 189 223 206 196 240 275 261 288 297 290 291 298 292 288 282 275 281 284 279 265 261 269 294 307 282 251 256 280 273 306 309 328 337 325 329 354 352 347 1 16
Height
1540 1538 1537 1533 1534 1532 1532 1531 1529 1529 1527 1525 1524 1521 1519 1519 1517 1517 1516 1518 1518 1517 1516 1518 1519 1520 1521 1520 1521 1520 1511 1499 1497 1499 1499 1501 1498 1499 1498 1498 1497 1497 1498 1499 1497
1541 1539 1536 1532 1532 1532 1532 1529 1528 1527 1525 1523 1523 1520 1520 1518 1515 1517 1515 1520 1519 1517 1517 1516 1520 1518 1518 1517 1516 1513 1499 1487 1493 1494 1497 1498 1499 1497 1497 1493 1495 1496 1497 1497 1496
1542 1538 1535 1532 1532 1532 1530 1528 1527 1525 1524 1522 1520 1518 1518 1517 1520 1520 1518 1519 1518 1517 1518 1515 1518 1516 1514 1514 1512 1506 1491 1488 1489 1497 1498 1497 1496 1498 1493 1490 1491 1493 1493 1497 1497
1542 1538 1535 1532 1532 1531 1529 1527 1526 1524 1523 1522 1521 1519 1518 1517 1516 1519 1519 1519 1517 1517 1518 1517 1516 1515 1513 1507 1507 1502 1493 1494 1495 1495 1496 1495 1495 1492 1491 1488 1491 1492 1495 1495 1496
1541 1539 1535 1533 1532 1530 1529 1526 1524 1523 1522 1521 1520 1518 1516 1519 1522 1520 1519 1517 1517 1518 1519 1518 1517 1516 1512 1507 1507 1500 1493 1494 1492 1495 1495 1496 1490 1487 1481 1487 1491 1491 1492 1494 1493
1541 1538 1535 1533 1531 1529 1527 1524 1523 1522 1521 1520 1518 1516 1516 1520 1522 1521 1518 1517 1517 1519 1519 1519 1519 1519 1517 1513 1508 1496 1495 1494 1493 1492 1492 1492 1488 1490 1457 1483 1485 1487 1486 1487 1489
1540 1537 1534 1532 1530 1528 1525 1523 1521 1521 1520 1518 1517 1515 1519 1525 1522 1521 1520 1518 1518 1519 1520 1520 1520 1520 1517 1509 1505 1504 1496 1487 1484 1484 1483 1488 1481 1475 1441 1477 1479 1480 1479 1478 1480
1538 1536 1533 1531 1529 1526 1524 1521 1519 1518 1517 1516 1516 1515 1522 1523 1522 1522 1521 1521 1519 1519 1519 1519 1518 1519 1517 1512 1507 1500 1492 1480 1469 1466 1471 1480 1460 1460 1457 1469 1469 1471 1472 1470 1472
1536 1534 1532 1529 1527 1524 1522 1519 1517 1517 1516 1515 1516 1516 1523 1523 1524 1521 1520 1519 1518 1516 1517 1518 1518 1514 1513 1507 1497 1487 1483 1471 1463 1465 1469 1468 1454 1457 1461 1460 1459 1461 1461 1461 1461
1535 1532 1530 1527 1525 1522 1520 1517 1516 1517 1516 1517 1518 1522 1526 1527 1523 1522 1520 1518 1518 1516 1516 1517 1516 1509 1504 1499 1490 1478 1473 1468 1466 1468 1468 1465 1453 1456 1457 1456 1453 1453 1452 1452 1452
1534 1531 1529 1526 1523 1521 1519 1517 1522 1522 1520 1524 1527 1527 1528 1526 1523 1524 1521 1519 1518 1516 1510 1514 1509 1498 1495 1494 1491 1490 1487 1479 1471 1470 1471 1462 1458 1459 1455 1452 1449 1449 1448 1444 1446
1532 1530 1528 1526 1523 1521 1519 1518 1522 1526 1527 1526 1527 1528 1527 1525 1525 1524 1522 1521 1518 1513 1513 1510 1503 1499 1499 1499 1496 1493 1488 1478 1469 1468 1467 1458 1448 1451 1452 1448 1446 1448 1445 1441 1440
1532 1529 1528 1525 1524 1523 1521 1522 1523 1523 1526 1530 1529 1529 1529 1528 1526 1524 1524 1521 1517 1514 1511 1510 1501 1502 1501 1496 1495 1488 1484 1476 1472 1466 1464 1459 1439 1443 1443 1442 1440 1440 1441 1439 1433
1531 1529 1527 1526 1527 1524 1524 1524 1524 1524 1520 1530 1529 1530 1530 1527 1525 1525 1523 1524 1517 1513 1510 1505 1501 1502 1497 1494 1493 1487 1479 1478 1474 1466 1455 1448 1427 1427 1427 1420 1421 1423 1428 1428 1427
1530 1528 1527 1525 1526 1527 1527 1525 1524 1526 1509 1534 1530 1531 1529 1528 1527 1522 1523 1520 1515 1510 1512 1504 1500 1495 1491 1489 1489 1484 1479 1476 1474 1464 1452 1445 1437 1420 1422 1419 1416 1410 1412 1416 1417
1530 1528 1527 1526 1526 1527 1526 1525 1527 1525 1524 1530 1531 1530 1528 1527 1525 1524 1522 1521 1516 1511 1504 1503 1500 1498 1491 1489 1486 1484 1480 1470 1464 1456 1452 1437 1433 1409 1407 1404 1403 1404 1403 1403 1407
1529 1527 1526 1526 1528 1526 1525 1527 1525 1516 1536 1531 1531 1530 1528 1526 1524 1523 1521 1518 1519 1516 1500 1493 1485 1493 1494 1485 1478 1476 1475 1464 1450 1447 1437 1415 1417 1400 1400 1399 1394 1394 1393 1397 1401
1529 1528 1527 1527 1526 1526 1526 1527 1517 1536 1530 1534 1533 1529 1526 1529 1525 1524 1522 1518 1523 1521 1510 1502 1493 1489 1491 1489 1484 1476 1475 1477 1462 1434 1420 1407 1409 1392 1388 1389 1393 1393 1390 1391 1393
1528 1529 1529 1528 1528 1527 1529 1522 1533 1531 1536 1535 1529 1525 1524 1527 1531 1526 1521 1521 1526 1525 1526 1512 1501 1493 1488 1485 1484 1474 1475 1472 1470 1444 1437 1410 1398 1390 1400 1396 1403 1397 1390 1386 1384
1528 1530 1530 1529 1529 1528 1529 1534 1533 1537 1537 1536 1531 1531 1526 1523 1529 1524 1522 1525 1525 1526 1527 1519 1510 1489 1486 1484 1480 1481 1478 1474 1467 1455 1439 1409 1401 1397 1421 1420 1416 1412 1405 1393 1386
1528 1531 1532 1531 1530 1531 1529 1534 1535 1537 1538 1537 1533 1531 1528 1529 1528 1525 1522 1521 1527 1525 1523 1520 1517 1492 1488 1481 1483 1478 1478 1479 1479 1464 1453 1433 1411 1429 1423 1422 1418 1417 1410 1400 1387
1527 1531 1531 1532 1535 1537 1535 1535 1538 1536 1537 1537 1536 1533 1529 1528 1526 1524 1523 1520 1523 1524 1521 1519 1519 1503 1486 1479 1482 1481 1483 1484 1481 1467 1462 1449 1421 1414 1412 1416 1423 1418 1411 1402 1389
1528 1531 1532 1532 1532 1536 1536 1536 1537 1535 1535 1535 1534 1533 1531 1530 1530 1522 1522 1523 1524 1524 1521 1522 1511 1506 1481 1473 1484 1490 1491 1490 1489 1481 1461 1454 1425 1415 1416 1414 1418 1417 1410 1401 1389
1527 1530 1534 1534 1535 1534 1533 1533 1534 1537 1536 1535 1533 1532 1529 1527 1527 1524 1520 1520 1523 1521 1522 1520 1513 1509 1497 1489 1496 1492 1489 1487 1487 1478 1456 1447 1430 1415 1413 1414 1411 1410 1407 1398 1389
1526 1530 1531 1531 1534 1534 1535 1534 1532 1533 1535 1533 1530 1529 1528 1529 1525 1520 1516 1515 1517 1514 1514 1513 1508 1504 1501 1494 1489 1482 1478 1475 1470 1465 1467 1439 1427 1421 1420 1417 1412 1409 1402 1398 1390
1525 1528 1531 1530 1532 1533 1534 1532 1531 1530 1533 1528 1529 1527 1527 1529 1528 1524 1520 1518 1512 1510 1511 1511 1507 1500 1496 1485 1480 1472 1463 1457 1452 1445 1441 1431 1426 1437 1430 1418 1411 1409 1403 1397 1395
1523 1525 1528 1530 1530 1531 1529 1528 1529 1531 1529 1529 1529 1529 1526 1524 1522 1520 1518 1513 1511 1509 1505 1505 1502 1498 1485 1478 1476 1471 1453 1442 1438 1436 1435 1438 1442 1437 1429 1420 1415 1410 1405 1402 1393